Погода в Эль-Кайсуме

Саудовская Аравия     28°19′03″N   46°07′32″E
темп.,
°C
ветер,
м/с
пор.,
м/с
влажн.,
%
обл.,
%
осадки,
мм/ч
давл.,
гПа
погр.,
м
13 июня, вс
вс1300:00+27ссз611190 0.0 1007141
03:00+26ссз716180 0.0 1006240
06:00+26сз719190 0.0 1007384
09:00+35ссз1219120 0.0 10071455
12:00+40ссз141680 0.0 10052181
15:00+41ссз131470 0.0 10042689
18:00+38с111680 0.0 1004714
21:00+32ссз612140 0.0 1006131
14 июня, пн
пн1400:00+29ссз715180 0.0 1006214
03:00+27ссз58200 0.0 100581
06:00+27сз512190 0.0 1005182
09:00+37ссз1015100 0.0 10051594
12:00+41ссз121680 0.0 10043041
15:00+42ссз131470 0.0 10013406
18:00+40ссз101490 0.0 1001530
21:00+33сз69130 0.0 100385
15 июня, вт
вт1500:00+31сз611150 0.0 1002107
03:00+30ссз56160 0.0 100147
06:00+30зсз69160 0.0 1002114
09:00+39зсз91180 0.0 1002843
12:00+44сз101260 0.0 10013638
15:00+45ссз101060 0.0 9994249
18:00+42с71170 0.0 999215
21:00+36с57100 0.0 100155
16 июня, ср
ср1600:00+34с58120 0.0 100074
03:00+30сз614150 0.0 1001167
06:00+30ссз715190 0.0 1003246
09:00+37ссз912120 0.0 1004788
12:00+42ссз91180 0.0 10032310
15:00+43ссз111370 0.0 10022907
18:00+40ссз91380 0.0 1002432
21:00+32ссз611100 0.0 1005110
17 июня, чт
чт1700:00+30ссз612110 0.0 1004130
03:00+28с614150 0.0 1003181
06:00+27сз614190 0.0 1005236
09:00+36ссз1115110 0.0 10051279
12:00+40сз131580 0.0 10042177
15:00+41ссз131470 0.0 10022399
18:00+38ссз101470 0.0 1003576
21:00+31сз613120 0.0 1004144